2022-087D (53302 NORAD) Tracking and Keplerian Element Data

This shows tracking and keplerian element data for the satellite.

Feedback or suggestion? Click here.




ElementValue
Catalog53302
Name2022-087D
Epoch Orbit1782
Epoch Day325.27087683
Epoch Year2022
RAAN37.9501
Inclination97.3941
Eccentricity0.0013345
Argument of Perigee242.7219
Mean Anonmoly205.1046
Mean Motion15.24174625
Decay Rate9.79E-05
L11 53302U 22087D 22325.27087683 .00009790 00000+0 40388-3 0 9997
L22 53302 97.3941 37.9501 0013345 242.7219 205.1046 15.24174625 17829



Live tracking and technical data element details for 2022-087D (NORAD 53302). 2022-087D can be tracked NOW for your location showing map with azimuth and elevation plus other details from your city location.







IsCatalogInMostPopularTable: catalog: 53302, numindb: 6
Update: records affected: 1



GetName: 53302 2022-087D

Hit Count: updated at: Thu, 08 Dec 2022 20:44:09 GMT